GFSNW_850_temp_162.txt.gz
Temp
1 2 2 3 3 2 1 1 1 4 3 2 3 3 5 7 8 10 10 9 9 10 10 9 10 10 10 11 11 10 10 7 5 9 11 12 12 11 10 6 9 7 6 7
0 1 2 2 3 3 1 1 2 3 3 1 1 2 5 6 7 8 9 9 9 10 9 7 7 8 10 10 10 9 9 5 6 7 8 9 10 10 9 9 6 7 3 4
-1 0 1 2 2 3 1 1 1 2 3 3 2 3 4 5 7 7 8 9 9 9 8 7 5 8 9 9 9 10 10 7 7 6 7 7 7 8 8 8 2 4 4 6
-1 -0 0 1 1 2 1 0 1 2 2 2 3 3 4 5 6 8 9 8 8 7 5 7 6 7 7 9 9 9 7 6 6 6 7 7 7 7 7 7 7 6 6 6
-1 -1 -0 0 1 2 0 -0 1 2 2 3 3 3 3 4 5 6 7 7 8 7 6 5 5 7 6 6 7 7 7 5 4 -1 6 7 6 5 5 7 7 7 7 7
-2 -1 -1 -0 0 1 -1 -0 2 3 2 2 2 2 3 5 6 7 8 8 7 7 7 8 7 7 7 7 7 6 6 5 4 5 6 6 5 5 6 7 8 7 6 7
-2 -2 -1 -0 0 -0 0 -0 1 1 1 3 3 4 4 4 6 5 8 8 7 7 8 7 7 7 7 7 6 7 5 5 4 2 5 3 5 7 8 7 8 8 8 8
-3 -2 -1 -1 -0 -1 0 -0 -0 -0 0 3 4 4 5 5 5 5 7 8 7 7 7 2 4 3 5 5 6 6 6 5 2 3 4 5 7 8 9 8 7 8 7 6
-2 -2 -2 -1 -1 -0 -0 -1 0 -0 1 1 5 4 5 3 3 4 7 8 7 7 1 1 3 4 5 6 7 7 6 5 3 1 4 4 6 8 9 8 4 7 7 6
-3 -2 -2 -2 -1 -0 -1 -1 -0 -0 0 4 5 3 4 6 4 2 6 7 6 7 -2 0 2 3 6 4 6 7 3 3 3 3 4 4 7 8 9 6 5 8 8 7
-3 -2 -2 -2 -1 -1 -2 -1 -0 -0 0 3 4 5 5 5 6 1 4 3 3 0 -1 1 2 2 4 4 6 6 5 3 3 4 4 4 8 7 6 6 8 9 9 8
-3 -2 -2 -2 -1 -1 -1 -2 -1 -0 1 2 3 4 4 5 6 5 4 3 2 2 1 2 3 3 3 4 3 7 4 4 4 5 5 6 7 7 7 8 9 9 9 8
-3 -2 -2 -1 -1 -1 -1 -1 -1 -0 -0 2 3 4 4 4 5 5 4 3 3 2 2 2 2 2 3 3 3 4 6 5 3 3 5 5 5 6 7 8 8 9 9 8
-3 -2 -2 -2 -1 -1 -1 -0 -0 -0 -0 0 3 3 3 4 4 4 4 4 3 3 1 1 2 2 3 2 3 2 4 5 4 3 4 4 4 6 8 8 8 8 8 8
-2 -2 -2 -2 -1 -1 -1 -0 -0 -0 1 -1 1 3 4 4 4 4 4 3 3 2 1 -1 -0 2 2 2 2 1 5 3 3 4 5 4 5 7 8 7 7 8 7 6
-2 -2 -2 -2 -1 -1 -1 -1 -1 -0 0 1 -3 2 3 3 4 3 3 3 2 2 2 0 2 3 3 1 -0 4 7 7 7 6 7 6 7 7 8 7 7 7 6 6
-2 -2 -1 -1 -0 -1 -1 0 0 -0 1 1 -2 -1 3 4 3 3 3 3 3 2 2 1 0 2 2 1 2 5 6 6 6 6 6 6 7 7 7 7 7 6 6 5
-1 -2 -1 -1 -1 -1 -1 0 -0 1 -0 -0 -2 -2 1 3 3 2 2 3 3 2 1 0 1 1 1 1 3 4 4 4 4 5 6 7 7 6 6 6 6 5 5 4
-1 -1 -2 -1 -1 -1 -1 -1 -0 -0 0 -2 -2 -2 -2 2 1 0 0 1 1 1 0 0 1 1 1 2 3 3 5 4 6 6 7 6 6 6 6 5 5 5 4 4
-1 -1 -1 -2 -1 -1 -1 -2 -1 -1 -1 -1 -1 1 -2 1 -0 -0 -0 -0 -0 1 1 1 0 0 4 4 4 4 4 5 6 5 5 6 5 5 5 5 4 4 3 3
-0 -1 -2 -1 -1 0 -1 -2 -1 -2 -2 -2 -1 -0 -1 1 -0 0 -0 0 1 2 1 2 2 2 2 6 5 5 4 6 6 6 6 5 4 5 4 4 4 3 3 2
0 -1 -1 -1 -1 -1 -2 -4 -2 -1 -1 -1 -2 -1 1 1 2 0 -0 1 1 2 0 1 1 1 5 6 6 5 5 5 5 5 6 5 5 5 4 4 3 3 2 1
-0 0 -1 -1 -2 -2 -1 -1 -0 -0 -0 1 0 0 2 2 2 1 0 1 1 1 1 0 0 2 3 4 5 4 4 3 3 4 5 5 4 4 4 3 2 2 1 1
1 -1 -2 -3 -3 -1 -2 -2 -2 1 0 1 2 0 0 1 0 -1 1 1 0 -2 -1 2 -0 0 2 3 4 4 3 3 3 3 3 3 3 2 2 1 1 1 0 -0
-1 -0 -2 -4 -1 -0 -1 0 0 1 1 1 0 -0 -0 0 0 -0 -0 -1 -1 0 1 1 -0 0 1 2 3 3 3 3 2 2 2 2 2 1 1 -0 -0 -1 -1 -1
-1 -1 -3 -0 -2 -2 -1 -2 -1 -0 -0 0 -0 0 0 1 0 1 1 1 1 -0 -1 -1 -1 -0 1 1 2 2 2 2 1 1 1 1 1 0 0 -1 -1 -1 -1 -1
-1 -1 -1 -1 -1 -2 -1 -1 -1 -1 -0 0 0 1 1 0 1 1 -0 -1 -0 -1 -0 -1 -2 -1 -0 0 1 1 1 1 1 1 0 0 -0 -0 -1 -1 -1 -2 -2 -3

GFSNW_850_temp_165.txt.gz
Temp
-0 0 1 2 2 3 2 0 0 3 3 2 3 2 3 5 7 8 7 8 8 8 9 9 9 10 10 10 10 10 9 6 5 9 10 10 11 10 9 5 8 7 3 5
-1 -0 0 1 2 2 2 0 1 2 2 1 1 2 4 5 5 7 7 8 8 9 8 6 7 8 9 10 10 9 9 5 6 7 7 8 8 9 9 8 5 6 2 4
-2 -1 -0 0 1 1 2 -0 0 2 2 3 2 2 3 4 6 6 6 7 7 8 7 6 5 7 9 9 9 9 9 6 7 5 7 6 6 7 8 7 2 4 6 6
-2 -2 -1 -0 0 1 1 -0 0 1 2 2 3 3 4 4 4 6 7 6 6 6 4 6 5 6 7 8 9 8 7 6 5 5 6 6 6 6 6 5 6 5 6 6
-2 -2 -2 -1 -0 -0 1 -0 -0 -0 1 3 3 3 4 4 5 5 6 6 7 6 5 5 5 5 6 6 7 6 5 5 3 -2 4 5 4 3 4 5 6 6 6 6
-3 -2 -2 -1 -1 -1 -0 -0 -0 0 1 2 2 3 3 4 5 5 6 6 6 6 5 7 8 8 7 6 6 5 5 4 3 5 5 5 4 3 5 6 6 6 5 6
-3 -2 -2 -2 -1 -2 -2 -1 -0 -0 1 2 2 4 4 3 4 4 6 6 5 7 8 7 7 7 7 6 5 6 5 4 3 3 5 2 5 6 6 6 6 6 7 7
-3 -3 -2 -2 -2 -1 -2 -2 -1 -0 1 2 3 4 4 4 3 4 4 5 6 6 7 2 4 3 5 5 5 6 5 4 2 3 4 5 6 7 7 5 6 7 6 6
-4 -3 -3 -2 -2 -2 -2 -2 -1 -1 -1 1 4 4 4 2 1 2 4 6 5 4 2 2 4 4 5 5 6 5 5 4 4 1 3 3 5 7 8 8 5 6 6 5
-4 -3 -3 -3 -2 -2 -2 -2 -1 -1 -1 1 3 2 2 4 2 1 4 5 4 4 -0 1 2 3 5 4 5 6 3 2 3 4 3 4 6 8 8 6 5 8 7 7
-3 -3 -3 -3 -2 -2 -2 -2 -1 -1 -1 1 2 4 4 4 4 -0 4 2 2 -1 0 1 2 2 4 3 5 5 3 1 3 3 3 3 6 7 6 5 8 8 8 8
-3 -3 -3 -3 -3 -2 -2 -2 -1 -1 -1 -0 2 3 5 5 6 6 4 4 2 2 -1 0 1 2 2 3 3 5 4 4 4 3 4 4 6 5 6 6 6 8 8 8
-3 -3 -3 -3 -2 -2 -2 -2 -2 -2 -1 -1 1 3 4 5 5 6 5 3 3 2 2 2 2 2 2 3 3 4 5 5 3 3 4 3 5 5 5 6 7 8 8 8
-4 -3 -3 -2 -2 -2 -2 -2 -2 -1 -1 -0 1 3 3 4 4 4 5 5 4 2 1 1 2 2 2 2 2 1 3 4 3 2 4 4 5 5 5 5 6 7 8 8
-4 -4 -3 -2 -2 -2 -2 -2 -2 -1 -0 -0 1 2 3 4 4 4 4 4 3 2 0 -0 0 1 1 1 1 1 4 3 1 2 5 4 5 7 5 6 6 7 8 7
-3 -3 -3 -3 -2 -2 -2 -2 -1 -1 -1 -1 -0 2 3 3 3 3 3 3 3 2 2 -1 0 2 2 0 1 3 5 6 6 5 7 6 6 7 8 7 7 7 7 7
-3 -3 -3 -2 -2 -2 -1 -1 -0 -1 -1 -0 -1 -0 2 3 3 2 2 2 2 2 2 1 1 1 2 -0 1 3 5 6 5 6 5 5 5 6 7 7 7 6 6 6
-3 -3 -2 -2 -2 -2 -2 -0 -0 -1 -1 -0 -3 -3 1 2 2 1 1 2 1 2 2 1 0 1 1 1 2 4 4 4 4 5 6 5 5 6 6 6 6 6 6 5
-3 -3 -2 -2 -2 -1 -1 -1 -1 -1 0 -2 -1 -2 -3 1 -0 0 0 0 -0 1 1 0 1 0 1 2 2 3 5 4 5 6 5 5 5 5 6 6 6 6 5 4
-3 -3 -2 -1 -1 -0 -1 -1 -1 0 -0 -1 -1 -1 -3 0 -1 -1 -1 -0 -0 0 1 0 1 2 3 4 4 4 4 4 5 3 4 5 5 5 4 4 5 5 5 4
-2 -2 -1 -1 -1 -1 -1 -2 -2 -2 -2 -2 -1 -1 -2 0 -1 0 -1 0 0 1 1 0 1 1 1 4 4 6 5 4 4 4 5 4 5 3 2 1 2 3 3 3
-1 -1 -1 -1 -0 -2 -2 -2 -2 -2 -2 -2 -2 -2 -0 0 1 -1 -0 0 0 2 0 1 2 1 3 4 5 5 5 4 4 5 5 4 4 4 3 3 3 3 3 2
1 1 -1 -1 -2 -2 -3 -3 -2 -1 -1 -1 -1 -2 0 1 1 -0 -1 1 0 -0 1 2 1 0 2 3 3 4 4 4 5 5 4 4 5 5 4 4 3 3 2 1
1 -1 -3 -6 -2 -2 -3 -3 -3 0 -1 -0 0 -1 -1 0 -1 -1 0 1 1 1 -1 2 -0 -1 1 2 3 4 4 3 3 4 4 4 4 4 3 3 2 2 1 0
-1 -1 -4 -4 -2 -1 -1 -1 -0 0 0 -0 -0 -0 -0 -0 -2 -0 1 0 0 -0 0 0 -0 -1 1 2 3 3 3 3 3 3 3 3 2 2 1 1 0 -0 -0 -0
-0 -1 -4 -2 -2 -2 -2 -3 -2 -1 -1 -0 -1 0 0 1 -0 0 1 1 0 -0 -3 -1 -0 -0 0 1 1 2 2 2 2 2 2 1 1 1 0 -0 -1 -1 -1 -1
-1 -3 -2 -2 -2 -2 -2 -2 -1 -1 -0 -0 -0 1 1 0 0 -0 -0 -1 -1 -1 0 -0 -1 -1 -0 0 1 1 1 1 1 1 0 0 -0 -0 -0 -1 -1 -2 -2 -2

GFSNW_850_temp_168.txt.gz
Temp
-1 -0 -0 0 1 2 2 2 1 2 4 2 2 3 2 5 5 7 6 6 7 8 8 8 8 8 9 8 9 10 8 5 5 9 9 9 10 9 9 6 8 6 2 7
-2 -2 -1 -0 0 1 2 1 0 1 2 0 -0 1 3 4 5 6 7 6 7 7 7 6 7 8 9 8 9 9 8 5 6 7 7 8 9 8 7 6 4 5 2 5
-2 -2 -2 -1 -1 -0 1 0 0 0 1 1 2 1 2 3 5 5 6 6 6 6 6 6 5 6 8 9 9 9 8 5 6 5 7 7 7 7 7 6 1 4 5 6
-3 -2 -2 -2 -1 -1 -0 -0 -0 2 1 1 1 2 3 3 3 5 5 5 5 5 4 6 5 6 7 8 8 8 7 5 5 5 5 6 6 6 5 5 6 5 6 6
-3 -3 -2 -2 -2 -1 -1 -0 -1 -1 -0 2 2 3 3 3 4 4 5 5 5 5 4 5 5 5 6 6 6 6 5 5 3 -1 4 4 4 3 3 5 5 5 5 5
-3 -3 -3 -2 -2 -2 -1 -1 -1 -0 0 1 2 2 3 4 4 4 5 5 4 4 4 6 7 8 7 7 5 5 5 4 3 4 4 5 4 2 4 5 4 5 5 6
-4 -3 -3 -2 -2 -2 -2 -2 -1 -1 1 1 2 2 3 4 4 3 5 5 4 5 6 6 6 6 6 5 5 6 4 4 4 3 4 2 4 5 6 5 5 5 5 6
-4 -4 -3 -3 -2 -2 -2 -2 -2 -1 -0 0 2 2 3 2 3 2 3 4 5 5 4 3 4 3 5 5 5 5 5 4 3 4 4 5 6 7 6 4 5 6 5 5
-4 -4 -3 -3 -3 -2 -2 -2 -2 -2 -2 1 1 1 1 1 1 1 2 4 4 4 1 2 3 3 5 5 6 4 4 4 4 2 3 2 5 7 8 7 5 6 6 4
-4 -4 -3 -3 -3 -3 -3 -3 -2 -2 -2 -1 1 1 1 1 0 -0 2 3 3 3 -0 2 3 3 5 4 5 5 3 1 2 3 3 3 5 5 7 5 4 6 7 6
-4 -3 -4 -4 -3 -3 -3 -3 -2 -2 -2 -1 -0 0 0 0 0 0 3 2 1 -0 1 2 2 2 3 4 5 5 4 2 2 3 3 3 5 5 5 4 5 5 6 7
-3 -3 -3 -3 -3 -3 -3 -3 -2 -2 -2 -2 -0 0 0 0 1 4 3 3 2 3 -1 -1 0 1 2 2 1 5 2 3 2 2 4 5 6 6 7 6 4 6 5 7
-4 -3 -3 -3 -3 -3 -3 -3 -2 -2 -2 -2 -1 0 2 1 1 3 4 2 4 3 3 1 0 1 2 1 2 4 4 3 3 3 4 3 4 7 5 5 4 6 6 6
-4 -4 -4 -3 -3 -3 -3 -3 -2 -2 -2 -2 1 2 2 0 1 3 4 5 4 3 3 1 1 1 1 2 2 2 3 3 3 1 3 4 5 5 6 5 5 4 6 6
-4 -4 -4 -3 -3 -3 -3 -3 -2 -2 -2 -1 -0 -0 1 0 2 4 4 4 4 2 -0 -0 0 0 1 0 0 1 3 3 0 2 5 5 5 7 6 5 5 5 6 7
-4 -4 -4 -4 -3 -3 -3 -4 -2 -2 -2 -1 -1 -0 -0 1 3 3 3 3 3 3 2 -1 0 1 1 -2 -1 2 5 5 5 4 5 5 6 6 6 6 6 6 6 7
-4 -4 -4 -3 -3 -3 -3 -2 -1 -1 -2 -1 -2 -1 1 1 2 2 2 2 2 2 2 -1 0 0 1 -4 1 2 4 5 5 5 4 3 4 5 6 6 6 6 6 6
-3 -3 -3 -3 -3 -3 -3 -1 -2 -1 -2 -1 -1 -1 -0 1 1 0 1 1 1 1 2 1 0 0 0 -0 2 3 4 3 4 4 4 4 4 5 5 5 5 6 5 5
-3 -3 -3 -3 -3 -3 -3 -1 -2 -1 -1 -2 -3 -0 -2 -0 -1 -1 -1 -0 -1 1 0 0 0 -1 0 1 2 3 4 4 5 5 5 4 4 5 5 5 5 5 5 5
-3 -3 -3 -2 -2 -2 -1 -2 -2 -1 -1 -2 -3 -1 -3 0 -0 -1 -0 -1 0 0 0 0 0 1 3 3 3 3 4 3 3 3 3 4 4 5 5 4 4 4 4 4
-3 -3 -3 -1 -2 -1 -2 -2 -2 -2 -2 -2 -1 -1 -2 -0 0 0 -1 0 -1 0 0 0 0 0 1 3 3 4 4 4 3 3 3 3 4 3 3 3 3 2 2 3
-3 -2 -2 -2 -1 -2 -2 -2 -2 -1 -1 -2 -2 -2 -1 -1 0 -1 -1 -0 -1 -0 -0 0 0 1 2 2 3 4 4 5 4 4 4 4 4 3 4 3 2 3 2 3
-3 -2 -2 -2 -3 -4 -3 -3 -2 -3 -3 -3 -3 -2 -0 -0 0 -2 -1 -0 0 -0 0 1 1 1 2 2 2 3 4 4 4 4 4 4 4 4 4 3 3 2 3 2
-1 -1 -3 -3 -5 -3 -3 -2 -3 -1 -2 -1 -1 -2 -2 -1 -1 -3 -0 1 -0 1 -1 1 -1 -0 0 1 2 3 3 3 3 4 4 4 4 4 3 3 3 2 2 1
0 -1 -5 -3 -2 -2 -2 -2 -1 -1 -0 -1 -1 -1 -0 -1 -1 -1 -0 0 1 -1 0 -1 -0 -1 0 2 2 3 3 3 3 3 3 3 3 3 2 2 1 1 1 0
-1 -2 -3 -1 -1 -2 -2 -2 -2 -1 -1 -1 -1 -0 -0 0 -0 0 1 1 -0 -1 -2 -1 -1 -0 0 1 2 2 2 2 2 2 2 2 1 1 1 1 0 -0 -0 -0
-2 -3 -3 -4 -4 -3 -2 -2 -1 -1 -1 -1 -1 -1 0 0 0 -0 -1 -1 -2 -1 -1 -0 -0 -0 -1 -1 0 1 1 1 1 1 1 1 0 0 -0 -0 -1 -1 -2 -2

GFSNW_850_temp_171.txt.gz
Temp
-1 -1 -1 -0 0 1 2 2 1 2 3 2 2 3 3 5 5 6 6 6 6 7 7 8 8 8 9 8 8 10 9 8 9 11 9 9 10 11 11 10 10 9 8 9
-2 -2 -2 -1 -1 0 0 1 1 1 1 2 2 1 3 4 4 5 6 6 6 7 6 6 7 8 9 8 9 9 9 8 9 9 9 9 10 9 9 7 8 9 8 9
-3 -3 -2 -2 -1 -1 -0 0 0 0 1 1 1 2 3 3 4 5 6 6 6 5 5 6 5 7 8 8 8 8 8 7 9 9 9 8 9 8 8 9 7 9 8 9
-3 -3 -3 -2 -2 -1 -1 -1 -0 1 1 1 1 2 3 3 3 4 4 5 5 5 4 6 6 6 7 8 8 8 8 8 7 8 7 7 8 8 8 8 8 7 8 9
-3 -3 -3 -2 -2 -2 -2 -1 -1 -1 -0 0 1 2 2 2 4 5 5 4 6 5 5 5 5 6 6 7 7 7 6 7 5 3 6 6 5 5 5 7 7 7 8 8
-4 -3 -3 -3 -2 -2 -2 -2 -1 -1 0 1 1 2 3 3 4 3 4 5 5 4 5 5 5 6 6 7 7 6 6 6 5 6 6 6 5 4 5 7 7 7 7 8
-4 -4 -4 -3 -3 -2 -3 -2 -2 -1 0 1 2 3 3 2 2 2 4 3 2 4 5 5 5 4 4 5 6 6 5 5 5 5 6 4 7 6 6 6 7 7 7 8
-4 -4 -4 -4 -3 -3 -3 -3 -3 -2 -1 0 1 2 2 2 2 2 2 2 2 1 2 3 3 4 5 5 5 5 6 5 3 5 6 7 7 8 7 6 7 8 7 8
-4 -4 -4 -4 -3 -3 -3 -3 -3 -2 -2 -0 1 2 1 1 2 2 1 1 2 1 1 2 3 4 5 5 5 5 5 5 4 3 4 4 7 7 6 7 6 6 6 6
-4 -4 -4 -4 -4 -3 -3 -3 -3 -3 -2 -1 -0 0 1 1 1 1 1 1 1 1 1 3 3 4 2 3 5 5 4 3 3 4 4 6 6 6 6 6 7 5 5 5
-4 -4 -4 -4 -4 -4 -4 -4 -3 -3 -3 -2 -1 -1 -0 0 -0 1 1 1 0 1 2 3 3 3 3 3 5 6 5 4 3 4 3 4 6 6 6 7 5 5 5 5
-4 -4 -4 -4 -4 -4 -4 -4 -3 -3 -3 -3 -2 -2 -1 -1 0 -1 -0 0 1 2 2 2 3 3 3 4 4 5 4 5 5 4 5 6 6 6 6 5 4 4 4 5
-4 -4 -4 -3 -3 -3 -4 -4 -3 -3 -3 -3 -3 -2 1 0 0 1 -1 1 3 3 3 1 2 3 3 3 3 4 5 4 5 4 5 5 7 7 6 5 3 4 4 4
-3 -3 -4 -4 -3 -3 -4 -4 -3 -3 -3 -2 -1 0 -0 1 0 0 1 -0 0 2 3 1 2 2 2 3 4 3 5 4 3 3 3 4 5 6 6 6 5 5 5 4
-3 -4 -4 -4 -4 -3 -4 -3 -3 -3 -3 -2 -2 -2 1 0 1 1 0 -0 0 1 0 1 1 1 1 1 2 2 3 4 4 4 5 6 6 6 6 5 5 5 3 4
-3 -4 -4 -4 -4 -4 -4 -4 -4 -3 -3 -3 -1 -1 -1 -0 0 -0 -0 0 2 3 2 0 -0 1 1 1 1 4 5 4 4 5 5 5 5 5 5 5 5 5 5 4
-3 -4 -4 -4 -4 -4 -4 -3 -3 -2 -3 -3 -1 -1 -1 -1 -1 -1 0 1 2 2 1 -0 0 0 1 -0 2 4 4 4 4 5 4 3 4 4 5 4 5 5 5 5
-3 -4 -4 -4 -3 -4 -4 -3 -3 -3 -4 -2 -1 -0 -1 -1 -1 -1 0 1 1 1 1 -0 0 -1 0 1 3 3 3 4 3 3 4 4 4 4 4 4 4 4 4 5
-3 -4 -4 -4 -4 -4 -4 -3 -3 -4 -3 -2 -2 -0 0 -0 -1 -1 -1 -1 -1 -1 0 -0 0 1 0 2 3 2 3 3 4 5 4 4 4 5 4 4 5 4 4 4
-3 -3 -3 -3 -3 -3 -3 -3 -3 -3 -2 -2 -2 -2 -0 0 -0 -1 -0 -0 1 0 1 0 1 2 3 3 3 3 3 3 3 2 2 2 3 3 4 4 5 4 4 4
-4 -3 -2 -3 -2 -3 -3 -2 -2 -2 -2 -2 -1 -1 -0 -1 0 1 0 0 -0 1 1 0 1 2 2 2 2 2 2 2 3 2 2 2 2 2 3 3 3 3 3 3
-3 -3 -3 -2 -2 -2 -2 -2 -2 -1 -0 -2 -2 -2 -1 -1 -1 -1 -1 -1 -1 0 -0 1 1 2 2 1 2 2 3 3 3 4 4 3 3 3 2 2 2 1 1 0
-3 -3 -3 -2 -3 -3 -2 -3 -1 -2 -3 -3 -3 -2 -1 -1 -1 -2 -0 -0 0 -0 1 1 2 1 1 1 1 2 2 3 3 3 4 3 3 3 2 2 2 1 1 2
-3 -3 -4 -2 -4 -3 -2 -1 -1 -2 -2 -3 -2 -3 -2 -2 -2 -1 -0 1 0 1 1 2 2 -0 0 1 1 2 3 3 3 3 3 3 3 3 3 3 3 2 2 2
-2 -2 -3 -3 -3 -3 -3 -3 -2 -1 -2 -2 -1 -1 -0 -1 -1 -1 -0 0 1 1 2 1 -1 -1 -1 1 1 2 2 2 2 2 2 3 3 3 3 2 3 2 1 1
-2 -2 -2 -1 -1 -2 -2 -1 -2 -1 -1 -1 -1 -0 0 -0 -0 0 0 1 1 1 0 -1 -1 -1 -1 -1 0 1 2 2 1 1 1 1 1 2 2 1 1 0 0 0
-3 -3 -4 -2 -4 -3 -1 -1 -1 -1 -1 -1 -1 -1 -0 -0 0 0 2 1 1 -1 -1 -1 -1 -1 -1 -1 -1 -0 1 1 1 1 1 1 0 0 0 0 -0 -1 -1 -1

GFSNW_850_temp_177.txt.gz
Temp
-0 0 0 0 1 1 1 1 3 2 3 3 5 5 7 9 10 10 10 10 11 11 12 12 12 12 14 15 14 13 15 14 13 14 17 18 17 16 16 14 13 15 15 14
-1 -1 -1 -1 -0 0 0 2 3 2 2 4 5 7 8 8 9 9 10 9 10 11 10 9 11 12 13 13 13 13 14 12 11 12 15 16 15 16 16 15 15 13 12 13
-2 -2 -2 -2 -1 -1 -0 0 2 2 1 2 4 6 7 7 8 8 8 9 9 9 8 8 6 9 12 12 11 10 10 10 10 9 11 11 9 11 14 14 12 12 12 13
-2 -2 -2 -2 -2 -1 -1 -0 1 3 2 2 3 3 6 6 7 9 7 7 9 8 5 6 6 8 10 11 11 10 10 8 9 10 11 12 12 11 12 11 12 11 11 12
-2 -2 -2 -2 -2 -2 -1 -1 0 0 2 2 4 3 3 4 6 6 4 6 7 8 4 5 6 8 9 9 11 10 10 8 9 7 10 10 10 11 11 11 11 11 12 12
-3 -3 -3 -2 -2 -2 -1 -0 -1 -1 0 4 3 4 4 5 6 3 3 2 2 4 5 5 4 5 6 8 9 9 9 8 8 7 9 9 8 9 10 11 12 12 11 13
-3 -3 -3 -3 -2 -3 -2 -1 -1 -0 1 3 5 6 6 5 5 3 5 4 3 5 3 4 4 5 6 7 9 9 8 8 8 6 8 6 10 13 13 13 13 13 13 13
-3 -3 -3 -3 -3 -3 -3 -3 -2 -1 1 3 4 5 6 6 5 5 5 4 3 3 1 3 4 6 6 8 9 9 10 9 7 6 8 10 11 12 12 11 11 13 13 13
-3 -3 -3 -3 -3 -3 -4 -2 -3 -2 -1 2 3 4 4 5 4 5 5 5 4 2 1 3 4 5 8 8 9 11 11 10 8 7 6 7 11 11 12 12 10 13 13 11
-3 -3 -3 -3 -3 -3 -4 -2 -2 -3 -2 0 1 3 3 3 4 4 4 4 4 2 2 3 5 6 8 7 8 8 8 8 6 7 7 8 12 12 11 8 9 10 10 10
-3 -3 -4 -3 -3 -3 -4 -3 -2 -3 -3 -1 0 0 -0 2 2 3 2 2 3 2 2 4 6 7 8 8 9 8 8 7 7 6 6 6 12 12 10 11 9 10 9 9
-3 -3 -3 -4 -3 -3 -3 -4 -2 -2 -3 -2 -1 -2 -1 -1 1 1 1 1 1 1 2 2 4 5 7 6 6 10 8 10 9 6 8 7 9 10 10 10 9 9 8 7
-3 -3 -3 -3 -3 -3 -3 -4 -3 -3 -3 -2 -2 -1 -0 0 -0 0 -0 1 2 1 -0 -0 1 4 5 5 7 9 10 11 9 9 10 10 10 10 10 9 8 8 7 6
-3 -3 -3 -3 -3 -3 -3 -4 -4 -4 -3 -2 -0 1 1 1 1 1 1 0 0 -0 -0 0 1 2 6 7 8 8 9 9 8 8 9 9 9 9 8 8 8 8 7 6
-3 -3 -3 -3 -4 -3 -4 -4 -4 -4 -4 -2 -1 -1 -0 0 1 1 1 0 -0 -0 0 0 1 3 4 8 9 8 10 9 8 7 9 9 9 9 8 8 8 7 7 8
-3 -4 -3 -3 -3 -4 -4 -4 -3 -4 -4 -3 -1 2 1 1 1 1 1 1 0 -0 1 1 2 3 4 7 8 10 9 9 9 9 9 8 8 8 8 8 7 7 7 7
-4 -4 -4 -3 -3 -4 -4 -3 -3 -3 -3 -3 -0 3 3 1 1 0 -1 -0 -0 -0 -0 1 2 2 5 6 6 8 8 8 8 8 8 8 7 8 7 7 7 7 7 6
-4 -4 -3 -3 -3 -4 -4 -4 -3 -3 -3 -2 -0 2 3 0 -0 -1 -1 -1 -1 -1 0 2 5 7 6 5 8 8 8 9 8 8 7 7 7 7 7 7 7 7 7 7
-4 -3 -4 -4 -4 -4 -4 -3 -3 -4 -4 -2 0 1 1 -0 0 -1 -1 -1 2 1 4 5 6 5 4 6 8 8 8 7 7 7 7 7 7 7 7 7 7 7 7 7
-4 -4 -4 -3 -3 -3 -3 -4 -4 -4 -4 -3 -1 1 1 1 -0 1 1 2 3 3 6 6 4 5 6 7 7 7 5 5 5 7 6 6 6 6 7 7 6 7 7 6
-4 -3 -3 -2 -3 -3 -2 -3 -2 -1 -1 -2 -1 1 2 -0 1 2 2 3 3 3 6 5 5 6 8 7 5 3 3 4 5 6 6 6 6 6 6 6 5 5 6 5
-3 -2 -2 -3 -3 -3 -2 -1 -0 0 1 1 2 3 3 0 1 2 2 2 2 2 4 4 5 8 7 4 1 1 1 2 4 4 4 5 5 5 5 4 4 3 3 3
-2 -2 -2 -3 -2 -1 -1 0 1 1 2 1 1 2 2 1 1 2 2 1 2 5 2 4 7 6 5 1 0 0 1 2 2 3 2 3 3 3 3 2 2 1 1 0
-2 -3 -2 -1 -0 -0 1 2 2 1 1 0 0 1 1 1 2 1 1 3 4 3 3 5 5 3 0 1 -0 -0 0 1 1 1 2 2 2 2 2 2 2 1 1 0
-2 -2 0 0 1 1 -1 -1 -0 -1 -1 -1 0 1 2 1 1 1 2 2 3 4 5 5 2 -0 -1 -1 -1 -1 -0 1 -0 1 2 2 2 1 1 1 1 1 1 1
-3 -1 -0 1 1 0 -1 -0 0 -1 -0 -0 1 2 1 2 2 2 2 4 4 5 4 3 1 -0 -1 -1 -2 -1 -1 -0 -1 0 1 1 1 1 0 0 0 1 1 1
-1 -1 -2 -2 -1 -0 -1 -1 -0 -1 -0 1 3 2 3 4 3 3 5 4 4 2 2 1 -0 -1 -1 -2 -2 -2 -2 -1 -1 -0 0 0 0 0 -0 -0 -0 -0 0 0